Location: Zagreb
(45.8000°N, 16.0000°E)
Time: 02:56:25
(UTC+02:00)

Tiros 1 despin weight - All Passes

Search period start: 08 August 2022 00:00
Search period end: 18 August 2022 00:00
Orbit: 592 x 638 km, 48.2° (Epoch: 07 August)

Date Brightness Start Highest point End Pass type
(mag) Time Alt. Az. Time Alt. Az. Time Alt. Az.
08 Aug - 14:03:52 10° SSW 14:07:51 33° SE 14:11:48 10° E daylight
08 Aug - 15:44:38 10° WSW 15:49:04 84° NNW 15:53:29 10° ENE daylight
08 Aug - 17:26:23 10° WNW 17:30:47 63° N 17:35:09 10° E daylight
08 Aug - 19:07:58 10° WNW 19:12:22 72° SSW 19:16:46 10° ESE daylight
08 Aug - 20:50:06 10° W 20:53:20 20° SW 20:56:35 10° S visible
09 Aug - 12:40:16 10° SSE 12:42:27 13° SE 12:44:36 10° ESE daylight
09 Aug - 14:18:53 10° SW 14:23:13 53° SSE 14:27:31 10° ENE daylight
09 Aug - 16:00:16 10° W 16:04:41 69° N 16:09:05 10° ENE daylight
09 Aug - 17:42:01 10° WNW 17:46:25 72° N 17:50:49 10° E daylight
09 Aug - 19:23:36 10° WNW 19:27:49 46° SSW 19:32:03 10° SE daylight
09 Aug - 21:07:19 10° WSW 21:08:29 11° SW 21:09:40 10° SSW visible
10 Aug - 12:54:03 10° SSW 12:57:38 24° SE 13:01:11 10° E daylight
10 Aug - 14:34:15 10° WSW 14:38:41 80° SSE 14:43:07 10° ENE daylight
10 Aug - 16:15:56 10° W 16:20:20 63° N 16:24:43 10° E daylight
10 Aug - 17:57:35 10° WNW 18:02:01 89° SSW 18:06:25 10° ESE daylight
10 Aug - 19:39:22 10° W 19:43:10 28° SW 19:46:56 10° SSE daylight
11 Aug - 13:08:46 10° SW 13:12:56 39° SSE 13:17:04 10° E daylight
11 Aug - 14:49:48 10° W 14:54:16 77° NNW 14:58:41 10° ENE daylight
11 Aug - 16:31:35 10° WNW 16:35:59 65° N 16:40:22 10° E daylight
11 Aug - 18:13:10 10° WNW 18:17:31 62° SSW 18:21:52 10° SE daylight
11 Aug - 19:55:37 10° W 19:58:23 16° SW 20:01:09 10° S daylight
12 Aug - 11:44:36 10° S 11:47:27 17° SE 11:50:19 10° E daylight
12 Aug - 13:23:56 10° SW 13:28:20 63° SSE 13:32:43 10° ENE daylight
12 Aug - 15:05:28 10° W 15:09:53 65° N 15:14:16 10° ENE daylight
12 Aug - 16:47:11 10° WNW 16:51:36 77° NNE 16:56:01 10° E daylight
12 Aug - 18:28:49 10° W 18:32:56 39° SSW 18:37:00 10° SE daylight
13 Aug - 11:58:49 10° SSW 12:02:41 29° SE 12:06:31 10° E daylight
13 Aug - 13:39:22 10° WSW 13:43:51 89° SSE 13:48:17 10° ENE daylight
13 Aug - 15:21:07 10° W 15:25:32 63° N 15:29:55 10° E daylight
13 Aug - 17:02:44 10° WNW 17:07:10 80° SSW 17:11:34 10° ESE daylight
13 Aug - 18:44:42 10° W 18:48:13 23° SW 18:51:43 10° SSE daylight
14 Aug - 10:35:55 10° SSE 10:37:19 11° SE 10:38:44 10° ESE daylight
14 Aug - 12:13:43 10° SW 12:18:01 47° SSE 12:22:17 10° ENE daylight
14 Aug - 13:54:58 10° W 13:59:25 72° NNW 14:03:51 10° ENE daylight
14 Aug - 15:36:45 10° WNW 15:41:10 69° N 15:45:34 10° E daylight
14 Aug - 17:18:20 10° WNW 17:22:38 53° SSW 17:26:55 10° SE daylight
14 Aug - 19:01:18 10° WSW 19:03:23 13° SW 19:05:28 10° SSW daylight
15 Aug - 10:49:07 10° S 10:52:28 21° SE 10:55:48 10° E daylight
15 Aug - 12:28:59 10° WSW 12:33:28 72° SSE 12:37:53 10° ENE daylight
15 Aug - 14:10:38 10° W 14:15:04 64° N 14:19:27 10° ENE daylight
15 Aug - 15:52:19 10° WNW 15:56:47 84° NNE 16:01:11 10° ESE daylight
15 Aug - 17:34:02 10° W 17:38:00 33° SW 17:41:55 10° SSE daylight
16 Aug - 11:03:38 10° SSW 11:07:44 35° SE 11:11:47 10° E daylight
16 Aug - 12:44:30 10° WSW 12:48:59 83° NNW 12:53:27 10° ENE daylight
16 Aug - 14:26:16 10° WNW 14:30:42 64° N 14:35:05 10° E daylight
16 Aug - 16:07:53 10° WNW 16:12:17 70° SSW 16:16:40 10° ESE daylight
16 Aug - 17:50:05 10° W 17:53:14 19° SW 17:56:22 10° S daylight
17 Aug - 09:39:50 10° SSE 09:42:17 14° SE 09:44:43 10° ESE daylight
17 Aug - 11:18:41 10° SW 11:23:06 56° SSE 11:27:28 10° ENE daylight
17 Aug - 13:00:07 10° W 13:04:36 68° N 13:09:01 10° ENE daylight
17 Aug - 14:41:52 10° WNW 14:46:20 73° NNE 14:50:44 10° E daylight
17 Aug - 16:23:30 10° WNW 16:27:43 45° SSW 16:31:54 10° SE daylight
17 Aug - 18:07:39 10° WSW 18:08:21 10° SW 18:09:02 10° SW daylight
